Weather History for K2G4 - November, 2012

Change the Weather History Date:

Tuesday, November 20, 2012

  Actual Average (KMGW) Record (KMGW)
Temperature  
Mean Temperature 40 °F 43 °F  
Max Temperature 46 °F 52 °F 75 °F (1991)
Min Temperature 33 °F 35 °F 16 °F (1984)
Degree Days  
Heating Degree Days 26 22  
Month to date heating degree days 368  
Since 1 July heating degree days 810  
Cooling Degree Days 0 0  
Month to date cooling degree days 0  
Year to date cooling degree days 813  
Moisture  
Dew Point 31 °F    
Average Humidity 67    
Maximum Humidity 100    
Minimum Humidity 53    
Precipitation  
Precipitation 0.00 in 0.12 in - ()
Month to date precipitation 2.30  
Year to date precipitation 37.76  
Sea Level Pressure  
Sea Level Pressure 30.11 in    
Wind  
Wind Speed 5 mph (West)    
Max Wind Speed 7 mph    
Max Gust Speed -    
Visibility 10 miles    
Events      
T = Trace of Precipitation, MM = Missing Value Source: NWS Daily Summary

Daily Weather History Graph

Daily Weather History Graph

Search for Another Location

Airport or City:

Trip Planner

Search our weather history database for the weather conditions in past years. The results will help you decide how hot, cold, wet, or windy it might be!

Date:

Astronomy

Nov. 20, 2012 Rise Set
Actual Time 7:07 AM EST 4:58 PM EST
Civil Twilight 6:38 AM EST 5:27 PM EST
Nautical Twilight 6:05 AM EST 6:00 PM EST
Astronomical Twilight 5:33 AM EST 6:32 PM EST
Moon 12:41 PM EST (11/20) No Moon Set
Length of Visible Light 10h 48m
Length of Day
9h 50m
Waxing Crescent, 51% of the Moon is Illuminated
Nov 20
Waxing Crescent
Nov 28
Full
Dec 6
Last Quarter
Dec 13
New
Dec 20
First Quarter

Hourly Weather History & Observations

Time (EST) Temp. Windchill Dew Point Humidity Pressure Visibility Wind Dir Wind Speed Gust Speed Precip Events Conditions
12:20 AM 33.8 °F 27.7 °F 33.8 °F 100% 30.16 in 10.0 mi South 6.9 mph - N/A   Clear
12:40 AM 33.8 °F 27.7 °F 32.0 °F 93% 30.16 in 10.0 mi SSE 6.9 mph - N/A   Clear
1:00 AM 33.8 °F 27.7 °F 33.8 °F 100% 30.15 in 10.0 mi SE 6.9 mph - N/A   Clear
1:20 AM 33.8 °F 27.7 °F 33.8 °F 100% 30.15 in 10.0 mi SE 6.9 mph - N/A   Clear
1:45 AM 33.8 °F 28.6 °F 33.8 °F 100% 30.14 in 10.0 mi SE 5.8 mph - N/A   Clear
2:25 AM 35.6 °F 30.7 °F 32.0 °F 87% 30.14 in 10.0 mi South 5.8 mph - N/A   Clear
2:45 AM 33.8 °F 29.6 °F 32.0 °F 93% 30.14 in 10.0 mi South 4.6 mph - N/A   Clear
3:10 AM 35.6 °F 30.7 °F 32.0 °F 87% 30.14 in 10.0 mi South 5.8 mph - N/A   Clear
4:15 AM 37.4 °F 33.8 °F 30.2 °F 75% 30.13 in 10.0 mi SW 4.6 mph - N/A   Clear
4:35 AM 39.2 °F 37.0 °F 30.2 °F 70% 30.12 in 10.0 mi West 3.5 mph - N/A   Clear
4:55 AM 41.0 °F 39.0 °F 28.4 °F 61% 30.12 in 10.0 mi West 3.5 mph - N/A   Clear
5:15 AM 41.0 °F 39.0 °F 30.2 °F 65% 30.12 in 10.0 mi West 3.5 mph - N/A   Clear
6:20 AM 37.4 °F 32.8 °F 32.0 °F 81% 30.11 in 10.0 mi South 5.8 mph - N/A   Clear
6:40 AM 37.4 °F 34.9 °F 32.0 °F 81% 30.12 in 10.0 mi SW 3.5 mph - N/A   Clear
7:05 AM 37.4 °F 33.8 °F 32.0 °F 81% 30.12 in 10.0 mi SSW 4.6 mph - N/A   Clear
7:25 AM 37.4 °F 34.9 °F 32.0 °F 81% 30.12 in 10.0 mi West 3.5 mph - N/A   Scattered Clouds
7:45 AM 41.0 °F - 28.4 °F 61% 30.12 in 10.0 mi Calm Calm - N/A   Clear
8:05 AM 41.0 °F 38.0 °F 30.2 °F 65% 30.13 in 10.0 mi SW 4.6 mph - N/A   Scattered Clouds
8:30 AM 41.0 °F 39.0 °F 32.0 °F 70% 30.13 in 10.0 mi West 3.5 mph - N/A   Clear
8:50 AM 42.8 °F 40.1 °F 30.2 °F 61% 30.13 in 10.0 mi WNW 4.6 mph - N/A   Mostly Cloudy
9:10 AM 42.8 °F 40.1 °F 30.2 °F 61% 30.13 in 10.0 mi West 4.6 mph - N/A   Overcast
9:55 AM 42.8 °F 41.1 °F 30.2 °F 61% 30.13 in 10.0 mi WSW 3.5 mph - N/A   Clear
10:15 AM 44.6 °F 43.1 °F 32.0 °F 61% 30.13 in 10.0 mi West 3.5 mph - N/A   Clear
10:35 AM 42.8 °F 38.6 °F 32.0 °F 66% 30.13 in 10.0 mi WSW 6.9 mph - N/A   Clear
10:55 AM 44.6 °F 42.2 °F 32.0 °F 61% 30.12 in 10.0 mi WSW 4.6 mph - N/A   Clear
11:20 AM 46.4 °F 45.2 °F 32.0 °F 57% 30.11 in 10.0 mi West 3.5 mph - N/A   Scattered Clouds
11:40 AM 46.4 °F 45.2 °F 30.2 °F 53% 30.11 in 10.0 mi NW 3.5 mph - N/A   Mostly Cloudy
12:00 PM 46.4 °F 44.3 °F 32.0 °F 57% 30.10 in 10.0 mi NNW 4.6 mph - N/A   Overcast
12:20 PM 44.6 °F 42.2 °F 32.0 °F 61% 30.10 in 10.0 mi NW 4.6 mph - N/A   Mostly Cloudy
12:45 PM 44.6 °F 43.1 °F 32.0 °F 61% 30.08 in 10.0 mi West 3.5 mph - N/A   Mostly Cloudy
1:05 PM 46.4 °F 45.2 °F 32.0 °F 57% 30.08 in 10.0 mi West 3.5 mph - N/A   Mostly Cloudy
1:25 PM 46.4 °F 44.3 °F 30.2 °F 53% 30.08 in 10.0 mi West 4.6 mph - N/A   Mostly Cloudy
1:45 PM 46.4 °F 45.2 °F 30.2 °F 53% 30.08 in 10.0 mi West 3.5 mph - N/A   Scattered Clouds
2:10 PM 46.4 °F 44.3 °F 30.2 °F 53% 30.07 in 10.0 mi NW 4.6 mph - N/A   Mostly Cloudy
2:30 PM 46.4 °F 43.5 °F 30.2 °F 53% 30.07 in 10.0 mi WNW 5.8 mph - N/A   Overcast
2:50 PM 44.6 °F - 30.2 °F 57% 30.06 in 10.0 mi Calm Calm - N/A   Overcast
3:10 PM 44.6 °F 42.2 °F 28.4 °F 53% 30.07 in 10.0 mi WNW 4.6 mph - N/A   Overcast
3:35 PM 46.4 °F 43.5 °F 30.2 °F 53% 30.07 in 10.0 mi West 5.8 mph - N/A   Overcast
3:55 PM 44.6 °F 43.1 °F 32.0 °F 61% 30.07 in 10.0 mi WNW 3.5 mph - N/A   Overcast
4:15 PM 44.6 °F 43.1 °F 30.2 °F 57% 30.08 in 10.0 mi WNW 3.5 mph - N/A   Overcast
4:35 PM 44.6 °F - 32.0 °F 61% 30.08 in 10.0 mi Calm Calm - N/A   Mostly Cloudy
5:00 PM 42.8 °F - 32.0 °F 66% 30.08 in 10.0 mi Calm Calm - N/A   Overcast
5:20 PM 42.8 °F 41.1 °F 32.0 °F 66% 30.08 in 10.0 mi West 3.5 mph - N/A   Mostly Cloudy
5:40 PM 42.8 °F 41.1 °F 30.2 °F 61% 30.08 in 10.0 mi WNW 3.5 mph - N/A   Scattered Clouds
6:00 PM 42.8 °F 41.1 °F 30.2 °F 61% 30.09 in 10.0 mi WNW 3.5 mph - N/A   Clear
6:25 PM 42.8 °F 41.1 °F 30.2 °F 61% 30.09 in 10.0 mi WNW 3.5 mph - N/A   Clear
6:45 PM 42.8 °F - 30.2 °F 61% 30.09 in 10.0 mi Calm Calm - N/A   Scattered Clouds
7:05 PM 41.0 °F 39.0 °F 30.2 °F 65% 30.09 in 10.0 mi WNW 3.5 mph - N/A   Clear
7:25 PM 41.0 °F 39.0 °F 30.2 °F 65% 30.10 in 10.0 mi WNW 3.5 mph - N/A   Scattered Clouds
7:50 PM 41.0 °F 39.0 °F 30.2 °F 65% 30.11 in 10.0 mi WNW 3.5 mph - N/A   Scattered Clouds
8:10 PM 41.0 °F - 30.2 °F 65% 30.11 in 10.0 mi Calm Calm - N/A   Scattered Clouds
8:30 PM 41.0 °F 39.0 °F 30.2 °F 65% 30.11 in 10.0 mi NW 3.5 mph - N/A   Clear
8:50 PM 41.0 °F 38.0 °F 30.2 °F 65% 30.11 in 10.0 mi WNW 4.6 mph - N/A   Scattered Clouds
9:15 PM 41.0 °F 39.0 °F 30.2 °F 65% 30.12 in 10.0 mi NW 3.5 mph - N/A   Overcast
9:55 PM 41.0 °F 39.0 °F 28.4 °F 61% 30.11 in 10.0 mi NW 3.5 mph - N/A   Overcast
10:15 PM 41.0 °F 38.0 °F 26.6 °F 57% 30.12 in 10.0 mi NW 4.6 mph - N/A   Overcast
10:40 PM 41.0 °F 39.0 °F 26.6 °F 57% 30.11 in 10.0 mi WNW 3.5 mph - N/A   Mostly Cloudy
11:00 PM 39.2 °F 37.0 °F 26.6 °F 61% 30.11 in 10.0 mi WNW 3.5 mph - N/A   Scattered Clouds
11:20 PM 39.2 °F 37.0 °F 28.4 °F 65% 30.11 in 10.0 mi WNW 3.5 mph - N/A   Clear
11:40 PM 39.2 °F 37.0 °F 28.4 °F 65% 30.11 in 10.0 mi WNW 3.5 mph - N/A   Clear